Regional Weather Roundup
Issued by NWS Cleveland, OH

Home | Current Version | Previous Version | Graphics & Text | Print | Product List | Glossary On
Versions: 1 2 3 4 5 6 7 8 9 10 11 12 13 14 15 16 17 18 19 20 21 22 23 24 25 26 27 28 29 30 31 32 33 34 35 36 37 38 39 40 41 42 43 44 45 46 47 48 49 50
000
ASUS41 KCLE 150010
RWRCLE
OHIO REGIONAL WEATHER ROUNDUP
NATIONAL WEATHER SERVICE WILMINGTON, OH
700 PM EST THU DEC 14 2017

NOTE: "FAIR" INDICATES FEW OR NO CLOUDS BELOW 12,000 FEET WITH NO
SIGNIFICANT WEATHER AND/OR OBSTRUCTIONS TO VISIBILITY.

OHZ001>008-015>018-024>027-034-035-043-044-150100-
   NORTHWEST OHIO

CITY           SKY/WX    TMP DP  RH WIND       PRES   REMARKS
DEFIANCE       MOCLDY    13   6  74 CALM      30.10R
FINDLAY        FAIR      14   4  64 W5        30.08R WCI   6
TOLEDO EXPRESS FAIR      12   6  77 SW5       30.09R WCI   4
TOLEDO EXEC    FAIR      12   5  73 SW7       30.10R WCI   1
LIMA           FAIR      16  10  77 CALM      30.07R
$$

OHZ009>014-019>023-028>033-038-089-150100-
   NORTHEAST OHIO

CITY           SKY/WX    TMP DP  RH WIND       PRES   REMARKS
CLE-HOPKINS    FAIR      16  11  80 W8        30.10R WCI   5
CLE-LAKEFRONT  FAIR      21  13  71 SW12      30.08R WCI   9
CUY CO. ARPT   FLURRIES  23  14  68 W9        30.06R WCI  13
LORAIN-ELYRIA  FAIR      11   5  77 SW6       30.08R WCI   1
ASHTABULA      CLOUDY    21  14  74 SW8       30.05R WCI  11
AKRON-CANTON   FAIR      17  11  77 NW5       30.04R WCI  10
WOOSTER        NOT AVBL
MANSFIELD      FAIR      14  11  87 SW3       30.04R
YOUNGSTOWN     MOCLDY    18  12  77 NW5       30.03R WCI  11
$$

OHZ042-051>053-060>062-070>072-077>081-150100-
  SOUTHWEST OHIO

CITY           SKY/WX    TMP DP  RH WIND       PRES   REMARKS
CINC-COVINGTON CLOUDY    25  17  72 N6        30.07R WCI  18
CINC-LUNKEN    FAIR      24  17  74 NE6       30.11S WCI  17
HAMILTON       FAIR      22  17  81 CALM      30.10S
DAYTON         MOCLDY    21  17  84 W3        30.08R
WRIGHT-PAT AFB FAIR      22  16  78 CALM      30.08R
DAYTON GENERAL FAIR      23  15  71 CALM      30.07R
WILMINGTON     FAIR      22  16  78 CALM      30.06R
$$

OHZ036-037-039>041-045>050-054>059-063>069-073>076-082>088-150100-
  CENTRAL AND SOUTHEAST OHIO

CITY           SKY/WX    TMP DP  RH WIND       PRES   REMARKS
COLUMBUS       MOCLDY    23  16  74 N5        30.07R WCI  17
OSU AIRPORT    FAIR      21  15  78 NW5       30.07R WCI  15
BOLTON FIELD   MOCLDY    21  16  79 NW3       30.07R
RICKENBACK AFB FAIR      23  15  72 CALM      30.08R
NEWARK         FAIR      21  14  74 N3        30.07R
MARION         FAIR      15  10  80 CALM      30.07R
LANCASTER      FAIR      18  15  88 CALM      30.07R
ZANESVILLE     MOCLDY    24  14  65 W3        30.06R
NEW PHILLY     FAIR      18  12  77 CALM      30.07R
$$



USA.gov is the U.S. government's official web portal to all federal, state and local government web resources and services.